THORAD AGENA D DEB, 22532

Orbit data source: Space-Track

THORAD AGENA D DEB, 22532 is space debris in SSO originally from a launch on Wed, 08 Apr 1970 UTC launched from the Air Force Western Test Range (AFWTR). Debris objects in space refer to the collection of defunct objects orbiting the Earth. Examples of debris include non-operational satellites, rocket bodies, and fragments generated from explosions, collisions, or faulty payload assembly.

Loading next visibility...
Identifier
22532, 1970-025QN
Orbit
SSO
Country
Flag of USUS
Related business
Manufacturer
Unknown
Mission
Spacecraft
Bus & Motor
Unknown
Mass
Unknown
Launch date (UTC)
1970-04-08 (56 years ago)
Launch vehicle
Unknown
Launch site
Air Force Western Test Range (AFWTR)
Object type
Payload
Rocket body
Debris
Shape & HBR
Unknown shape, 0.1 m
Radar Cross Section
Small (<0.1 m²)

Expand to show TLE details & history
Last TLE update: 11 hours ago

TLE from 11 hours ago
0 THORAD AGENA D DEB
1 22532U 70025QN  26122.99714757  .00001127  00000-0  13302-2 0  9992
2 22532 100.0948 309.7385 0003639   3.0770 151.8841 13.70374235646460
Epoch: 2026-05-02T23:55Z
TLE epoch observation values (Epoch: 2026-05-02T23:55:53.550Z)
Latitude
24.63363°
Longitude
-85.48332°
Altitude
1,003.472 km
Speed
7.351 km/s
True Right ascension
08h 57m 35s
True Declination
24° 30' 29"
Sunlit
Object was in daylight at epoch
Visualization orbit readout
Latitude
Unknown
Longitude
Unknown
Altitude
Unknown
Speed
Unknown
Apparent Right ascension
Unknown
Apparent Declination
Unknown
Sunlit
N/A
Visualization observer readout
Local Sidereal Time
18:18:03
Azimuth
Unknown
Elevation
Unknown
Doppler factor
Unknown
Orbital elements
Apogee altitude
998.206 km
Perigee altitude
992.84 km
Semi-major axis
7,373.66 km
Eccentricity
0.00036
Inclination
100.0948°
RAAN
309.7385°
Arg. of periapsis
3.077°
True anomaly
151.90374°
Mean anomaly
151.8841°
Eccentric anomaly
151.89392°
Mean motion
3.42782 °/min
Orbital period
105.02 mins
BSTAR
0.0013302

Documentation

Showing up to 5 results
|